SCP
-0 -0 -0 -0 -0 -0 0 0 0 0 0 0 0 0 0 0 0 0 -0 -0 -0 -0 -0 -0 -0 -0 -0 -0 -0 -0 -0 -0 -0 -0 -0 -0 -0 -0
-0 -0 -0 -0 -0 0 0 0 0 0 0 0 0 0 0 0 0 0 0 0 -0 -0 -0 -0 -0 -0 -0 -0 -0 -0 -0 -0 -0 -0 -0 -0 -0 0
-0 0 -0 -0 0 0 0 0 0 0 0 0 -0 1 1 1 1 0 0 0 0 -0 -0 -0 -0 -0 -0 -0 -0 -0 -0 -0 -0 -0 -0 -0 -0 -0
0 0 0 0 0 0 0 1 1 1 0 0 0 0 1 1 1 1 0 0 0 -0 -0 -0 -0 -0 -0 -0 -0 -0 -0 -0 -0 -0 0 0 0 0
0 0 0 1 0 0 0 0 0 0 1 0 0 0 0 0 1 1 1 1 0 0 0 0 0 0 0 0 0 0 -0 -0 -0 -0 0 0 0 0
0 0 0 0 0 0 0 0 0 0 0 0 0 0 0 0 1 1 1 0 0 0 0 0 0 0 0 0 0 0 0 0 0 0 -0 0 0 0
0 0 0 0 0 0 0 0 0 0 0 1 0 0 0 1 1 0 0 0 0 0 0 0 1 1 1 0 0 0 0 0 0 0 0 0 0 0
0 0 0 0 0 0 0 0 0 0 0 0 0 0 0 0 1 0 0 0 0 0 1 1 0 0 0 1 1 0 0 0 0 0 0 0 0 0
0 0 0 0 0 0 0 0 0 0 0 0 0 -0 0 0 0 1 0 1 1 1 2 1 1 1 1 1 0 0 0 0 0 0 0 0 0 0
0 0 0 0 0 0 0 0 0 0 0 0 0 -0 0 0 0 0 1 1 1 1 2 1 1 1 1 1 1 0 0 0 0 0 0 0 0 0
0 0 0 0 0 0 0 0 0 0 0 0 0 0 0 0 0 0 1 1 1 1 2 2 1 1 1 1 1 0 0 0 0 0 0 0 0 0
0 0 0 0 0 0 0 0 0 0 0 0 0 0 0 0 0 0 1 0 1 0 0 1 1 2 1 1 0 1 2 0 0 0 0 0 0 0
0 0 0 0 0 0 0 0 0 0 0 0 0 0 0 0 0 0 0 0 0 0 0 0 0 0 1 0 0 0 1 1 1 0 0 0 0 0
0 0 0 0 0 0 0 0 0 0 0 0 0 0 0 0 0 0 0 0 0 0 0 1 0 0 0 0 0 0 0 1 2 2 2 0 0 0
0 0 0 0 0 0 0 0 0 0 0 0 0 0 0 0 0 0 0 0 0 0 0 0 0 0 0 0 0 0 0 0 1 1 1 1 1 2
0 0 0 0 0 0 0 0 0 0 0 0 0 0 0 0 0 0 0 0 0 0 0 0 0 0 0 0 0 0 0 0 0 0 1 1 1 1
0 0 0 0 0 0 0 0 0 0 0 0 0 0 0 0 0 0 0 0 0 0 0 0 0 0 0 0 0 0 0 0 0 0 1 1 1 1
0 0 0 0 0 0 0 0 0 0 0 0 0 0 0 0 0 0 0 0 0 0 0 0 0 0 0 0 0 0 0 0 0 0 0 0 0 0
0 0 0 0 0 0 0 0 0 0 0 0 0 0 0 0 0 0 0 0 0 0 0 0 0 0 0 0 0 0 0 0 0 0 0 0 0 0
0 0 0 0 0 0 0 0 0 0 0 0 0 0 0 0 0 0 0 0 0 0 0 0 0 0 0 0 0 0 0 0 0 0 0 0 0 0
0 0 0 0 0 0 0 0 0 0 0 0 0 0 0 0 0 0 0 0 0 0 0 0 0 0 0 0 0 0 0 0 0 0 0 0 0 0
0 0 0 0 0 0 0 0 0 0 0 0 0 0 0 0 0 0 0 0 0 0 0 0 0 0 0 0 0 0 0 0 0 0 0 0 0 0
0 0 0 0 0 0 0 0 0 0 0 0 0 0 0 0 0 0 0 0 0 0 0 0 0 0 0 0 0 0 0 0 0 0 0 0 0 0
Wind_Speed_500mb
23 28 31 26 25 31 34 25 29 28 30 21 23 23 24 24 30 35 37 40 41 39 35 37 36 36 39 42 44 45 47 47 50 49 46 44 43 44
22 29 29 31 29 28 31 31 34 30 31 15 18 19 18 17 22 32 33 42 41 42 42 41 41 42 41 40 41 42 42 42 44 48 51 54 54 52
29 31 30 30 28 24 26 27 26 31 33 31 30 23 28 24 20 20 32 38 37 45 46 45 44 46 48 50 51 49 47 44 45 46 47 49 54 58
26 30 30 30 33 32 28 31 34 37 37 36 39 33 31 24 28 30 27 28 33 39 40 43 41 45 51 53 52 54 54 53 53 50 50 50 53 57
32 30 27 32 31 31 29 34 33 32 29 33 36 37 44 30 32 35 32 32 36 38 46 43 45 47 51 58 58 58 57 54 55 57 56 54 54 57
29 27 27 30 33 27 25 28 27 28 27 33 37 38 41 33 37 32 39 42 38 37 42 45 50 51 52 55 65 64 63 62 61 60 59 60 59 59
29 28 34 37 42 40 23 23 28 29 37 46 45 44 41 40 32 30 35 37 41 41 42 44 42 43 53 58 61 71 75 73 71 68 66 64 63 64
21 26 32 36 34 39 40 35 36 33 33 28 31 26 29 31 33 32 33 38 42 37 43 43 42 49 47 47 51 63 67 79 80 79 76 72 69 68
21 21 16 22 18 22 30 38 38 39 34 27 27 26 28 28 33 38 36 41 47 38 34 42 38 44 42 48 50 64 71 68 71 82 86 83 78 75
17 16 10 10 12 11 10 8 15 21 25 30 31 33 34 38 45 47 47 49 46 44 49 58 43 49 47 51 56 62 69 71 67 71 80 89 91 84
14 12 15 17 16 15 13 13 12 12 12 16 19 20 21 24 27 31 37 41 46 42 37 47 45 45 39 48 48 56 64 71 67 73 77 94 94 87
9 8 9 14 13 16 17 17 16 17 20 19 20 23 27 26 27 29 29 34 35 41 30 31 31 32 39 37 38 39 44 56 49 64 67 66 73 82
7 8 9 10 11 12 12 14 17 19 22 20 17 14 15 15 14 18 25 28 32 37 31 34 40 43 50 57 53 52 56 58 57 59 57 66 74 70
18 17 18 17 16 14 12 12 10 11 8 10 12 12 13 14 18 23 27 26 28 37 41 46 53 49 57 61 63 57 54 60 62 59 58 52 60 80
16 16 16 15 18 14 12 13 15 16 16 11 11 14 16 19 22 19 22 26 28 31 31 36 41 42 46 52 54 54 55 54 57 63 61 57 59 62
12 10 10 12 13 15 15 15 14 14 13 14 16 18 21 23 24 27 30 29 32 33 30 27 34 46 41 42 50 55 52 54 48 53 58 61 57 60
13 7 7 8 10 12 15 17 17 17 18 18 18 20 21 24 25 26 27 29 30 35 37 37 37 43 40 43 47 47 51 50 49 49 57 65 61 61
14 11 11 11 11 12 13 13 15 17 17 18 19 21 23 25 28 28 29 31 32 33 34 36 38 40 43 38 29 37 40 45 49 50 50 57 56 54
11 11 10 9 10 11 13 15 17 20 22 21 22 24 26 28 30 31 32 34 37 37 36 38 36 39 44 49 44 41 42 50 55 56 52 48 54 55
8 7 8 9 11 13 15 16 18 20 23 25 25 27 29 31 34 36 36 37 38 41 43 39 35 35 40 50 60 56 47 50 46 56 57 58 59 61
8 8 9 10 12 13 16 18 21 22 25 26 27 29 31 32 36 37 39 41 48 43 44 42 41 46 45 44 50 52 48 51 55 52 61 60 63 62
13 13 14 15 16 18 20 22 23 25 27 28 29 31 33 35 37 40 41 44 43 46 49 49 46 44 42 43 47 53 52 48 48 55 58 54 56 68
13 14 17 19 20 22 24 25 27 29 28 29 30 33 38 40 40 41 43 45 46 46 48 47 44 43 44 43 46 48 50 53 54 57 58 52 50 62
Wind_Direction_500mb
249 245 244 241 244 233 238 248 256 252 241 230 236 229 229 243 238 238 237 239 236 240 239 238 236 236 237 237 238 239 242 246 242 242 248 245 244 241
254 249 249 247 242 249 249 247 251 244 254 232 219 227 216 232 256 238 232 238 236 232 237 237 237 238 240 241 242 242 242 242 243 246 249 247 244 242
265 248 251 247 242 245 258 249 245 248 246 244 245 237 242 244 234 244 242 240 242 237 238 240 241 242 243 243 243 246 245 245 246 247 248 249 247 247
255 250 255 245 252 243 242 248 245 250 245 250 231 233 247 247 247 243 239 242 241 247 241 238 242 249 249 247 248 246 246 248 248 248 249 251 252 248
258 255 260 253 244 244 250 261 257 250 256 258 257 255 247 251 249 247 245 240 239 246 247 239 247 249 252 248 247 249 247 247 248 248 248 248 251 253
265 260 262 264 243 231 243 264 250 248 259 262 261 256 234 244 253 252 256 257 249 248 250 254 257 255 254 252 247 246 247 247 248 248 248 248 248 250
258 270 270 266 252 243 248 253 238 260 266 273 251 253 245 233 250 256 258 254 257 254 253 250 255 268 258 252 253 248 247 249 249 248 249 250 249 249
269 278 272 275 270 251 255 264 259 256 274 266 267 265 260 236 256 255 251 254 257 253 253 259 253 252 254 253 266 260 253 252 253 252 249 249 251 251
273 275 268 287 282 270 275 275 265 259 255 254 268 268 264 264 260 259 261 257 253 251 275 258 260 260 259 264 260 259 265 259 254 251 250 251 251 251
264 271 273 256 277 299 314 293 260 259 254 256 266 276 268 266 254 260 262 264 268 268 254 264 266 267 269 268 267 266 263 263 262 257 252 250 247 247
253 264 266 276 288 293 296 302 302 297 281 266 271 276 278 281 277 273 273 276 279 281 277 268 272 269 269 269 267 270 271 272 264 263 265 256 249 242
46 353 297 265 269 281 284 288 291 292 294 294 297 292 292 294 288 286 287 283 280 285 293 276 286 293 289 276 277 271 270 279 279 265 262 250 245 240
68 44 332 324 322 314 298 290 291 293 299 308 314 309 302 303 297 293 298 292 291 288 294 289 288 285 282 285 280 280 283 281 277 280 267 252 245 254
83 77 68 54 40 29 21 18 16 40 347 346 344 335 327 321 317 311 309 303 291 287 291 287 286 283 281 282 281 283 279 275 276 275 267 269 260 256
73 59 50 37 35 23 16 357 350 357 4 4 348 333 333 320 317 311 292 311 318 306 307 301 301 299 292 290 288 284 281 276 273 274 272 268 261 264
46 14 14 7 356 3 12 12 17 359 6 353 342 333 330 325 325 322 322 315 309 303 283 291 286 289 297 298 298 296 294 291 285 275 270 266 264 260
75 58 54 46 39 37 31 33 24 20 14 4 354 344 338 334 330 328 323 320 314 312 310 310 310 310 302 297 298 293 293 290 286 288 281 277 272 266
68 61 54 48 42 33 27 23 14 13 7 360 351 343 338 334 325 331 324 323 319 316 313 311 314 312 305 303 286 294 288 287 289 291 293 291 287 285
61 56 47 34 23 11 6 3 359 350 360 347 341 337 333 330 328 324 320 318 316 314 310 310 314 313 315 307 307 306 295 291 291 291 286 284 282 281
48 40 23 3 355 349 348 346 341 341 340 341 339 335 332 329 327 323 321 316 312 311 311 309 308 305 300 303 304 303 306 304 295 291 289 287 283 281
341 343 341 337 331 334 328 331 330 326 332 337 336 333 330 327 321 318 316 318 316 316 309 310 305 299 303 305 301 304 304 300 297 295 292 288 290 291
302 303 307 308 312 316 320 322 322 318 315 319 324 328 327 324 320 318 317 315 311 308 307 308 312 312 305 301 297 300 302 305 299 296 293 295 292 289
315 305 299 299 306 308 308 310 310 308 306 311 317 323 324 322 318 315 314 311 308 304 306 306 309 309 303 299 298 302 303 309 311 305 300 288 293 288
Wind_Speed_850mb
23 28 31 26 25 31 34 25 29 28 30 21 23 23 24 24 30 35 37 40 41 39 35 37 36 36 39 42 44 45 47 47 50 49 46 44 43 44
22 29 29 31 29 28 31 31 34 30 31 15 18 19 18 17 22 32 33 42 41 42 42 41 41 42 41 40 41 42 42 42 44 48 51 54 54 52
29 31 30 30 28 24 26 27 26 31 33 31 30 23 28 24 20 20 32 38 37 45 46 45 44 46 48 50 51 49 47 44 45 46 47 49 54 58
26 30 30 30 33 32 28 31 34 37 37 36 39 33 31 24 28 30 27 28 33 39 40 43 41 45 51 53 52 54 54 53 53 50 50 50 53 57
32 30 27 32 31 31 29 34 33 32 29 33 36 37 44 30 32 35 32 32 36 38 46 43 45 47 51 58 58 58 57 54 55 57 56 54 54 57
29 27 27 30 33 27 25 28 27 28 27 33 37 38 41 33 37 32 39 42 38 37 42 45 50 51 52 55 65 64 63 62 61 60 59 60 59 59
29 28 34 37 42 40 23 23 28 29 37 46 45 44 41 40 32 30 35 37 41 41 42 44 42 43 53 58 61 71 75 73 71 68 66 64 63 64
21 26 32 36 34 39 40 35 36 33 33 28 31 26 29 31 33 32 33 38 42 37 43 43 42 49 47 47 51 63 67 79 80 79 76 72 69 68
21 21 16 22 18 22 30 38 38 39 34 27 27 26 28 28 33 38 36 41 47 38 34 42 38 44 42 48 50 64 71 68 71 82 86 83 78 75
17 16 10 10 12 11 10 8 15 21 25 30 31 33 34 38 45 47 47 49 46 44 49 58 43 49 47 51 56 62 69 71 67 71 80 89 91 84
14 12 15 17 16 15 13 13 12 12 12 16 19 20 21 24 27 31 37 41 46 42 37 47 45 45 39 48 48 56 64 71 67 73 77 94 94 87
9 8 9 14 13 16 17 17 16 17 20 19 20 23 27 26 27 29 29 34 35 41 30 31 31 32 39 37 38 39 44 56 49 64 67 66 73 82
7 8 9 10 11 12 12 14 17 19 22 20 17 14 15 15 14 18 25 28 32 37 31 34 40 43 50 57 53 52 56 58 57 59 57 66 74 70
18 17 18 17 16 14 12 12 10 11 8 10 12 12 13 14 18 23 27 26 28 37 41 46 53 49 57 61 63 57 54 60 62 59 58 52 60 80
16 16 16 15 18 14 12 13 15 16 16 11 11 14 16 19 22 19 22 26 28 31 31 36 41 42 46 52 54 54 55 54 57 63 61 57 59 62
12 10 10 12 13 15 15 15 14 14 13 14 16 18 21 23 24 27 30 29 32 33 30 27 34 46 41 42 50 55 52 54 48 53 58 61 57 60
13 7 7 8 10 12 15 17 17 17 18 18 18 20 21 24 25 26 27 29 30 35 37 37 37 43 40 43 47 47 51 50 49 49 57 65 61 61
14 11 11 11 11 12 13 13 15 17 17 18 19 21 23 25 28 28 29 31 32 33 34 36 38 40 43 38 29 37 40 45 49 50 50 57 56 54
11 11 10 9 10 11 13 15 17 20 22 21 22 24 26 28 30 31 32 34 37 37 36 38 36 39 44 49 44 41 42 50 55 56 52 48 54 55
8 7 8 9 11 13 15 16 18 20 23 25 25 27 29 31 34 36 36 37 38 41 43 39 35 35 40 50 60 56 47 50 46 56 57 58 59 61
8 8 9 10 12 13 16 18 21 22 25 26 27 29 31 32 36 37 39 41 48 43 44 42 41 46 45 44 50 52 48 51 55 52 61 60 63 62
13 13 14 15 16 18 20 22 23 25 27 28 29 31 33 35 37 40 41 44 43 46 49 49 46 44 42 43 47 53 52 48 48 55 58 54 56 68
13 14 17 19 20 22 24 25 27 29 28 29 30 33 38 40 40 41 43 45 46 46 48 47 44 43 44 43 46 48 50 53 54 57 58 52 50 62
Wind_Direction_850mb
249 245 244 241 244 233 238 248 256 252 241 230 236 229 229 243 238 238 237 239 236 240 239 238 236 236 237 237 238 239 242 246 242 242 248 245 244 241
254 249 249 247 242 249 249 247 251 244 254 232 219 227 216 232 256 238 232 238 236 232 237 237 237 238 240 241 242 242 242 242 243 246 249 247 244 242
265 248 251 247 242 245 258 249 245 248 246 244 245 237 242 244 234 244 242 240 242 237 238 240 241 242 243 243 243 246 245 245 246 247 248 249 247 247
255 250 255 245 252 243 242 248 245 250 245 250 231 233 247 247 247 243 239 242 241 247 241 238 242 249 249 247 248 246 246 248 248 248 249 251 252 248
258 255 260 253 244 244 250 261 257 250 256 258 257 255 247 251 249 247 245 240 239 246 247 239 247 249 252 248 247 249 247 247 248 248 248 248 251 253
265 260 262 264 243 231 243 264 250 248 259 262 261 256 234 244 253 252 256 257 249 248 250 254 257 255 254 252 247 246 247 247 248 248 248 248 248 250
258 270 270 266 252 243 248 253 238 260 266 273 251 253 245 233 250 256 258 254 257 254 253 250 255 268 258 252 253 248 247 249 249 248 249 250 249 249
269 278 272 275 270 251 255 264 259 256 274 266 267 265 260 236 256 255 251 254 257 253 253 259 253 252 254 253 266 260 253 252 253 252 249 249 251 251
273 275 268 287 282 270 275 275 265 259 255 254 268 268 264 264 260 259 261 257 253 251 275 258 260 260 259 264 260 259 265 259 254 251 250 251 251 251
264 271 273 256 277 299 314 293 260 259 254 256 266 276 268 266 254 260 262 264 268 268 254 264 266 267 269 268 267 266 263 263 262 257 252 250 247 247
253 264 266 276 288 293 296 302 302 297 281 266 271 276 278 281 277 273 273 276 279 281 277 268 272 269 269 269 267 270 271 272 264 263 265 256 249 242
46 353 297 265 269 281 284 288 291 292 294 294 297 292 292 294 288 286 287 283 280 285 293 276 286 293 289 276 277 271 270 279 279 265 262 250 245 240
68 44 332 324 322 314 298 290 291 293 299 308 314 309 302 303 297 293 298 292 291 288 294 289 288 285 282 285 280 280 283 281 277 280 267 252 245 254
83 77 68 54 40 29 21 18 16 40 347 346 344 335 327 321 317 311 309 303 291 287 291 287 286 283 281 282 281 283 279 275 276 275 267 269 260 256
73 59 50 37 35 23 16 357 350 357 4 4 348 333 333 320 317 311 292 311 318 306 307 301 301 299 292 290 288 284 281 276 273 274 272 268 261 264
46 14 14 7 356 3 12 12 17 359 6 353 342 333 330 325 325 322 322 315 309 303 283 291 286 289 297 298 298 296 294 291 285 275 270 266 264 260
75 58 54 46 39 37 31 33 24 20 14 4 354 344 338 334 330 328 323 320 314 312 310 310 310 310 302 297 298 293 293 290 286 288 281 277 272 266
68 61 54 48 42 33 27 23 14 13 7 360 351 343 338 334 325 331 324 323 319 316 313 311 314 312 305 303 286 294 288 287 289 291 293 291 287 285
61 56 47 34 23 11 6 3 359 350 360 347 341 337 333 330 328 324 320 318 316 314 310 310 314 313 315 307 307 306 295 291 291 291 286 284 282 281
48 40 23 3 355 349 348 346 341 341 340 341 339 335 332 329 327 323 321 316 312 311 311 309 308 305 300 303 304 303 306 304 295 291 289 287 283 281
341 343 341 337 331 334 328 331 330 326 332 337 336 333 330 327 321 318 316 318 316 316 309 310 305 299 303 305 301 304 304 300 297 295 292 288 290 291
302 303 307 308 312 316 320 322 322 318 315 319 324 328 327 324 320 318 317 315 311 308 307 308 312 312 305 301 297 300 302 305 299 296 293 295 292 289
315 305 299 299 306 308 308 310 310 308 306 311 317 323 324 322 318 315 314 311 308 304 306 306 309 309 303 299 298 302 303 309 311 305 300 288 293 288